Location: Ferchesar
(52.6477°N, 12.4298°E)
Time: 21:40:17
(UTC+02:00)

A-11 Canister half - Pass Details

Date: 13 March 2021
Orbit: 1525 x 1683 km, 47.3° (Epoch: 11 April)

Event Time Altitude Azimuth Distance (km) Brightness Sun altitude
Exits shadow 00:32:01 14° 96° (E) 3,507 10.8 -40.2°
Drops below altitude 10° 00:33:34 10° 89° (E) 3,804 11.1 -40.2°
Sets 00:37:34 0° 74° (ENE) 4,765 11.8 -40.1°
